Welcome to the New NWS' Forecast!
Most changes are behind the scenes, but click here for differences you might notice.
Latest weather observations around

Pine Bluff, Grider Field Airport (KPBF)

Using English Units (Switch to International System of Units)
Date/ Time (CST) Wind (mph) Vis. (mi) Weather Sky Cond. Temp (°F) Rel. Humidity Wind Chill (°F) Heat Index (°F) Pressure Precip. (in)
Air Dwpt 6 hour Altimeter (inHg) Sea level (inHg) 1 hr 3 hr 6 hr
Max Min
Nov 18 01:53 SSW 14 10 Cloudy BKN027 OVC031 70 63     78%     29.73 29.72      
Nov 18 00:53 SSW 15 10 Cloudy BKN023 OVC030 71 64     79%   72 29.75 29.75      
Nov 17 23:53 SSW 17 10 Cloudy OVC022 70 63     78%     29.76 29.76      
Nov 17 22:53 SSW 22 10 Mostly Cloudy and Windy BKN025 BKN050 70 63     78%     29.77 29.77      
Nov 17 21:53 S 17 10 Cloudy OVC050 72 62     71%   72 29.79 29.78      
Nov 17 20:53 S 17 10 Partly Cloudy SCT055 72 62     71%   72 29.78 29.78      
Nov 17 19:53 S 20 10 Cloudy and Windy OVC055 71 62     73%   71 29.8 29.79      
Nov 17 18:53 SSE 10 10 Mostly Cloudy BKN055 70 61     73%     29.81 29.8      
Nov 17 17:53 SSE 9 10 Mostly Cloudy BKN055 70 61     73%     29.82 29.82      
Nov 17 16:53 S 16 10 Mostly Cloudy BKN037 72 61     68%   72 29.84 29.83      
Nov 17 15:53 SSW 20 10 Partly Cloudy and Windy SCT037 74 61     64%   74 29.85 29.84      
Nov 17 14:53 S 21 10 Cloudy and Windy BKN037 OVC044 75 61     62%   75 29.85 29.85      
Nov 17 13:53 SSW 15 10 Mostly Cloudy BKN035 76 61     60%   76 29.88 29.87      
Nov 17 12:53 S 17 10 Clear CLR 76 59     56%   76 29.92 29.91      
Nov 17 11:53 S 16 10 Partly Cloudy SCT050 74 57     56%   74 29.96 29.95      
Nov 17 10:53 SSW 15 10 Mostly Cloudy BKN060 BKN085 71 57     61%   71 30.01 30      
Nov 17 09:53 S 13 10 Mostly Cloudy SCT060 BKN090 66 58     75%     30.04 30.03      
Nov 17 08:53 SSE 9 10 Cloudy OVC055 60 56     86%     30.06 30.05      
Nov 17 07:53 SSE 6 9 Partly Cloudy SCT055 56 54     93%     30.07 30.07      
Nov 17 06:53 ESE 6 10 Mostly Cloudy FEW043 FEW075 BKN100 54 51     90%     30.08 30.07      
Nov 17 05:53 SE 3 10 Mostly Cloudy FEW033 BKN046 BKN110 54 51     90%     30.09 30.08 0   0
Nov 17 04:53 SE 5 10 Light Rain BKN033 OVC041 55 51     86%     30.1 30.09 0    
Nov 17 03:53 E 5 10 Cloudy OVC036 55 50     83%     30.08 30.08      
Nov 17 02:53 Calm 10 Clear   55 50     83%     30.1 30.09 0    
Nov 17 01:53 ESE 5 10 Cloudy OVC037 56 50     80%     30.11 30.1      
Nov 17 00:53 E 6 10 Cloudy BKN048 BKN060 OVC080 56 50     80%     30.1 30.1      
Nov 16 23:53 E 5 10 Cloudy SCT034 BKN044 OVC070 56 51     84%     30.12 30.11      
Nov 16 22:53 E 3 10 Cloudy OVC033 56 52     87%     30.13 30.12      
Nov 16 21:53 E 5 10 Mostly Cloudy SCT033 BKN060 55 51     86%     30.14 30.14      
Nov 16 20:53 Calm 10 Cloudy OVC034 56 52     87%     30.17 30.16      
Nov 16 19:53 NE 3 10 Mostly Cloudy BKN055 56 51     84%     30.14 30.14      
Nov 16 18:53 ENE 6 8 Cloudy OVC055 57 51     81%     30.14 30.13      
Nov 16 17:53 NE 3 10 Cloudy BKN034 OVC055 57 51     81%     30.14 30.13      
Nov 16 16:53 E 6 10 Cloudy BKN031 OVC050 58 51     78%     30.13 30.13      
Nov 16 14:53 ENE 7 10 Cloudy OVC031 61 51     70%     30.14 30.14      
Nov 16 13:53 E 5 10 Cloudy BKN033 OVC047 61 50     67%     30.15 30.14      
Nov 16 12:53 ENE 7 10 Cloudy OVC036 59 47     64%     30.17 30.17      
Nov 16 11:53 NNE 6 10 Cloudy OVC034 57 46     67%     30.2 30.2      
Nov 16 10:53 NNE 7 10 Cloudy OVC036 57 45     64%     30.22 30.22      
Nov 16 09:53 NNE 10 10 Cloudy OVC034 55 44     66%     30.22 30.22      
Nov 16 08:53 NNE 10 10 Cloudy OVC036 52 43     71%     30.22 30.22      
Nov 16 07:53 NE 8 10 Cloudy OVC036 51 43     74%     30.2 30.2      
Nov 16 06:53 NE 8 10 Cloudy OVC048 51 43     74%     30.18 30.17      
Nov 16 05:53 N 8 10 Partly Cloudy FEW049 SCT065 50 45     83% 47   30.17 30.17      
Nov 16 04:53 N 8 10 Clear CLR 51 47     86%     30.16 30.16      
Nov 16 03:53 N 10 10 Mostly Cloudy BKN070 53 49     86%     30.16 30.15      
Nov 16 03:25 N 9 10 Mostly Cloudy FEW020 BKN065 55 51     86%     30.15        
Nov 16 03:05 N 10 9 Mostly Cloudy SCT005 BKN020 56 53     90%     30.15        
Nov 16 02:53 N 8 5 Fog/Mist BKN005 BKN014 OVC020 56 55     97%     30.15 30.15      
Nov 16 02:40 N 11 5 Fog/Mist BKN005 OVC070 57 56     96%     30.15        
Nov 16 02:25 N 8 4 Fog/Mist FEW005 BKN070 56 55     97%     30.14        
Nov 16 01:53 N 6 4 Fog/Mist OVC070 56 55     97%     30.14 30.14      
Nov 16 00:53 N 6 4 Fog/Mist BKN065 56 55     97%     30.14 30.14      
Nov 15 23:53 N 3 7 Partly Cloudy SCT050 SCT075 57 55     93%     30.14 30.14      
Nov 15 22:53 Calm 9 Cloudy SCT050 OVC070 59 56     90%     30.13 30.13      
Nov 15 21:53 Calm 9 Cloudy BKN050 OVC070 59 56     90%     30.13 30.12      
Nov 15 20:53 Calm 10 Cloudy BKN032 OVC043 60 56     86%     30.12 30.11      
Nov 15 20:15 Calm 10 Cloudy OVC031 60 56     86%     30.11        
Nov 15 19:53 ENE 5 10 Cloudy SCT022 BKN029 OVC036 60 56     86%     30.11 30.1      
Nov 15 18:53 NNW 3 10 Cloudy OVC027 61 56     83%     30.1 30.09      
Nov 15 18:12 N 3 10 Cloudy OVC029 61 56     83%     30.09        
Nov 15 17:53 N 3 10 Cloudy OVC031 61 57     87%     30.08 30.08     0
Nov 15 16:53 Calm 10 Cloudy OVC033 62 57     84%     30.06 30.05      
Nov 15 15:53 SE 3 10 Cloudy OVC033 63 56     78%     30.04 30.03 0    
Nov 15 14:53 Calm 10 Light Rain OVC041 63 54     72%     30.03 30.03 0 0  
Nov 15 13:53 S 3 10 Cloudy SCT050 OVC095 62 52     70%     30.03 30.03      
Nov 15 12:53 NW 6 10 Cloudy OVC060 62 53     72%     30.07 30.06      
Nov 15 11:53 6 10 Mostly Cloudy BKN060 61 53     75%     30.08 30.07     0
Nov 15 10:53 SW 8 10 Cloudy SCT055 OVC095 57 52     83%     30.09 30.08 0    
Nov 15 09:53 S 10 10 Cloudy BKN055 OVC100 59 48     67%     30.09 30.08      
Nov 15 08:53 S 10 10 Cloudy SCT055 BKN080 OVC100 57 48     72%     30.07 30.07      
Nov 15 07:53 SSE 6 10 Cloudy BKN060 OVC100 55 47     74%     30.08 30.07      
Nov 15 06:53 SE 5 10 Cloudy BKN055 OVC100 53 46     77%     30.06 30.05      
Nov 15 05:53 E 5 10 Cloudy BKN080 OVC100 53 46     77%     30.05 30.05      
Nov 15 04:53 ESE 9 10 Cloudy BKN065 OVC090 53 45     74%     30.04 30.04      
Nov 15 03:53 SSE 3 10 Cloudy OVC090 52 44     74%     30.06 30.05      
Nov 15 02:53 S 3 10 Mostly Cloudy BKN095 52 42     69%     30.06 30.06      
Jun 11 16:53 SSE 11 10 Clear CLR 88 68     52%   92 29.99 29.98      
Jun 09 06:05 Calm 4 Fog/Mist CLR 57 56     96%     29.95        
Jun 09 04:53 Calm 10 Clear CLR 58 57     97%     29.93 29.93      
Jun 08 23:53 Calm 10 Clear   62 58     86%     29.95 29.94      
Jun 08 22:53 Calm 10 Clear CLR 64 58     81%     29.95 29.94      
Jun 08 18:53 NE 7 10 Clear   76 56     50%   76 29.91 29.91      
Jun 08 15:53 N 11 10 Clear CLR 80 54     41%   80 29.95 29.94      
Jun 08 00:53 NNW 5 10 Clear CLR 64 58     81%     29.96 29.96      
Jun 06 12:53 NNE 11 10 Clear CLR 83 68     61%   86 29.81 29.8      
Jun 06 01:38 NNE 7 10 Mostly Cloudy BKN008 73 71     94%   74 29.78        
Notice The following observation data may not be complete
Jun 05 13:53 Calm 10 Cloudy OVC080   70      %     29.76 29.75